Aérodrome :
LOGIN :

S'inscrire | Disclaimer

   EN    FR    IT 

 










Légende :    VFR   VFR Marginal   IFR   IFR Intensif   IFR Très Intensif
Visi : 
Plafond : 
>= 8 km
>= 3000ft
5 à 8 km
1000 à 3000 ft
1500m à 5 km
500 à 1000 ft
800 à 1500m
200 à 500 ft
< 800m
< 200 ft
Symboles :   Orages  Brouillard  Fortes neiges  Fortes précipitations  Vent > 20 kt
SIGMETs :   Divers  Orages  Givrage  Turbulence  Onde Orograph.  Cendres Volcan.






- Altitude de l'aérodrome : 161 ft


LRTZ - Tuzla Romania

DERNIER METAR :
  • 242300Z 27010KT 9999 FEW050 SCT100 BKN200 13/09 Q1020 BLU BLU

METARs EXPIRÉS :
  • 242100Z 22010KT 9999 SCT050 BKN100 OVC200 14/10 Q1019 BLU BLU

TAF TAF LRTZ
Valide du 25 à 00h jusqu'au 26 à 00h UTC


242300Z 2500/2600 33012KT 9999 SCT100
TEMPO 2508/2514 SCT035



MET'MAP, la Météo Aéronautique d'un coup d'oeil ! - Copyright ORBIFLY Décembre 2007 - Disclaimer

ORBIFLY MET'MAP TEAM :

Programmation & Développement : Alexandra Zaïnal
Sur une idée originale de : Baudouin d'Aumeries
Assistance à la programmation : Marc-Olivier Méhu
Soutien technique & logistique : Manuel Goepfert

Contact : metmap@orbifly.com




SOURCES & CREDITS :

   NOAA